User: anonymous   Login
Location: Caltech
(34.1382°N, 118.1253°W)
Time: 00:51:27
(UTC-07:00)
Language:

ADEOS II - Orbit

View from above orbital plane
View from above orbital plane
View from above satellite
View from above satellite

Ground track
Ground track

The orbit data is extracted from the following two-line orbital elements,

1 27597U 02056A   15241.18074949  .00000101  00000-0  57965-4 0  9996
2 27597 098.2923 230.8841 0002259 094.8961 314.0372 14.27119421661562
Epoch (UTC): 29 August 2015 04:20:16
Eccentricity: 0.0002259
inclination: 98.2923°
perigee height: 800 km
apogee height: 803 km
right ascension of ascending node: 230.8841°
argument of perigee: 94.8961°
revolutions per day: 14.27119421
mean anomaly at epoch: 314.0372°
orbit number at epoch: 66156

The dashed part of the orbit path shows where the satellite is in the earth's shadow,  

DLR